Ignatyevo Airport
UHBB : now visible

Airfield :











YOU CAN JOIN US ON...

 
LOGIN :

Register | Disclaimer

   EN    FR    IT 

 









Legend :    VFR   Marginal VFR   IFR   Intensive IFR   Very Intensive IFR
Visi :
Ceiling :
>= 8 km
>= 3000ft
5 to 8 km
1000 to 3000 ft
1500m to 5 km
500 to 1000 ft
800 to 1500m
200 to 500 ft
< 800m
< 200 ft
Symbols :   Thunderstorms  Fog  Heavy snow  Heavy precipitations  Wind > 20 kt







- Airport Elevation : 638 ft
- IATA code : BQS


UHBB - Ignatyevo

CURRENT METAR :
  • 190530Z 36004MPS 9999 SCT033CB 19/12 Q1011 R36/090060 NOSIG RMK QFE741/0988

EXPIRED METARs :
  • 190500Z 01002MPS 300V070 9999 SCT033CB 18/11 Q1011 R36/090060 NOSIG RMK QFE741/0988
  • 190430Z 33003MPS 9999 BKN033CB 18/11 Q1011 R36/090060 NOSIG RMK QFE741/0988
  • 190400Z 31003MPS 270V350 9999 BKN026CB 18/10 Q1010 R36/090060 NOSIG RMK QFE740/0987

TAF TAF UHBB
Valid from the 19 at 06:00 until the 20 at 06:00 UTC


190440Z 1906/2006 36003MPS 9999 SCT012 BKN020CB
BECMG 1910/1912 17003MPS
No reported NOTAMs for that airfield.



MET'MAP, your aeronautical weather chart ! - Copyright ORBIFLY December 2007 - Disclaimer

ORBIFLY MET'MAP TEAM :

Programming & Development : Alexandra Zaïnal
Concept & Development : Baudouin d'Aumeries
Co-Development & Prog : Marc-Olivier Méhu
Technical & hardware support : Manuel Goepfert

Contact : metmap@orbifly.com




SOURCES & CREDITS :

   NOAA       Earth
Advisory